Tracking 28052 objects as of 25-Sep-2023
HD Live streaming from Space Station
objects crossing your sky now

EXPRESS 2

Track EXPRESS 2 now!
EXPRESS 2 is classified as:


NORAD ID: 24435
Int'l Code: 1996-058A
Perigee: 35,755.1 km
Apogee: 35,802.3 km
Inclination: 14.7 °
Period: 1,435.3 minutes
Semi major axis: 42149 km
RCS: 10 m2 (large)
Launch date: September 26, 1996
Source: Commonwealth of Independent States (former USSR) (CIS)
Launch site: TYURATAM MISSILE AND SPACE COMPLEX (TTMTR)
Your satellite tracking list
Your tracking list is empty




NASA's NSSDC Master Catalog

Two Line Element Set (TLE):
1 24435U 96058A   23267.75605134  .00000005  00000-0  00000-0 0  9992
2 24435  14.6586   1.9397 0005593  10.5316 323.6872  1.00325401 98810
Source of the keplerian elements: AFSPC